When you browse on this site, cookies collect data to enhance your experience and personalize the content and advertising you see.
Visit our Privacy Policy to learn more. By continuing to use the site, you agree to this use of cookies and data.
  • In Hungary
  • List of Countries
  • For 7 days
  • Water Temperature
  • Satellite Maps
  • Weather Map
  • News
  • Weather Widgets
  • user-avatar
    Login

    Hourly Weather Muszyna

    Today, 19 November, Monday

    Time Temperature Precipitation Wind Pressure Humidity
    00:00 -2°C° 0 mm 1 mps 712 mmHg 62%
    01:00 -3°C° 0 mm 1 mps 712 mmHg 60%
    02:00 -5°C° 0 mm 2 mps 711 mmHg 61%
    03:00 -5°C° 0 mm 2 mps 711 mmHg 63%
    04:00 -5°C° 0 mm 2 mps 711 mmHg 65%
    05:00 -5°C° 0 mm 2 mps 711 mmHg 67%
    06:00 -5°C° 0 mm 2 mps 711 mmHg 69%
    07:00 -5°C° 0 mm 2 mps 711 mmHg 71%
    08:00 -4°C° 0 mm 2 mps 711 mmHg 71%
    09:00 -3°C° 0 mm 2 mps 711 mmHg 72%
    10:00 -2°C° 0 mm 3 mps 711 mmHg 72%
    11:00 -2°C° 0 mm 3 mps 711 mmHg 72%
    12:00 -1°C° 0 mm 3 mps 711 mmHg 72%
    13:00 -1°C° 0 mm 3 mps 711 mmHg 72%
    14:00 -1°C° 0 mm 3 mps 711 mmHg 76%
    15:00 -2°C° 0 mm 2 mps 711 mmHg 79%
    16:00 -2°C° 0 mm 2 mps 711 mmHg 83%
    17:00 -2°C° 0 mm 2 mps 712 mmHg 85%
    18:00 -3°C° 0 mm 2 mps 712 mmHg 87%
    19:00 -3°C° 0 mm 2 mps 712 mmHg 89%
    20:00 -3°C° 0 mm 2 mps 712 mmHg 90%
    21:00 -1°C° 0 mm 1 mps 713 mmHg 91%
    22:00 -2°C° 0 mm 1 mps 713 mmHg 92%
    23:00 -2°C° 0 mm 1 mps 713 mmHg 92%

    Tomorrow, 20 November, Tuesday

    Time Temperature Precipitation Wind Pressure Humidity
    00:00 -2°C° 0 mm 1 mps 713 mmHg 92%
    01:00 -2°C° 0 mm 1 mps 713 mmHg 92%
    02:00 -2°C° 0 mm 1 mps 712 mmHg 93%
    03:00 -2°C° 0 mm 1 mps 712 mmHg 93%
    04:00 -2°C° 0 mm 1 mps 712 mmHg 94%
    05:00 -2°C° 0 mm 1 mps 711 mmHg 93%
    06:00 -4°C° 0 mm 2 mps 711 mmHg 92%
    07:00 -4°C° 0 mm 2 mps 711 mmHg 91%
    08:00 -2°C° 0 mm 2 mps 711 mmHg 84%
    09:00 -1°C° 0 mm 2 mps 711 mmHg 77%
    10:00 +2°C° 0 mm 2 mps 711 mmHg 69%
    11:00 +2°C° 0 mm 2 mps 711 mmHg 67%
    12:00 +3°C° 0 mm 2 mps 710 mmHg 65%
    13:00 +4°C° 0 mm 2 mps 710 mmHg 63%
    14:00 +3°C° 0.2 mm 2 mps 710 mmHg 68%
    15:00 +2°C° 0.2 mm 2 mps 709 mmHg 74%
    16:00 +1°C° 0.2 mm 2 mps 709 mmHg 79%
    17:00 +1°C° 0.3 mm 2 mps 709 mmHg 81%
    18:00 +1°C° 0.3 mm 2 mps 709 mmHg 82%
    19:00 +1°C° 0.3 mm 2 mps 709 mmHg 84%
    20:00 +1°C° 0.6 mm 2 mps 709 mmHg 85%
    21:00 +2°C° 0.6 mm 1 mps 710 mmHg 87%
    22:00 +2°C° 0.6 mm 1 mps 710 mmHg 88%
    23:00 +2°C° 0.5 mm 1 mps 710 mmHg 90%

    Day after tomorrow, 21 November, Wednesday

    Time Temperature Precipitation Wind Pressure Humidity
    00:00 +2°C° 0.5 mm 1 mps 710 mmHg 91%
    01:00 +2°C° 0.5 mm 1 mps 710 mmHg 93%
    02:00 +1°C° 0.1 mm 1 mps 710 mmHg 93%
    03:00 +1°C° 0.1 mm 1 mps 710 mmHg 94%
    04:00 +1°C° 0.1 mm 1 mps 710 mmHg 95%
    05:00 +1°C° 0 mm 1 mps 710 mmHg 95%
    06:00 +1°C° 0 mm 1 mps 710 mmHg 95%
    07:00 +1°C° 0 mm 1 mps 711 mmHg 95%
    08:00 +2°C° 0 mm 1 mps 711 mmHg 93%
    09:00 +2°C° 0 mm 1 mps 711 mmHg 91%
    10:00 +2°C° 0 mm 2 mps 712 mmHg 89%
    11:00 +2°C° 0 mm 2 mps 712 mmHg 88%
    12:00 +2°C° 0 mm 2 mps 712 mmHg 87%
    13:00 +3°C° 0 mm 2 mps 712 mmHg 86%
    14:00 +2°C° 0 mm 2 mps 712 mmHg 88%
    15:00 +1°C° 0 mm 2 mps 712 mmHg 90%
    16:00 +1°C° 0 mm 2 mps 712 mmHg 92%
    17:00 -1°C° 0 mm 2 mps 712 mmHg 92%
    18:00 -1°C° 0 mm 2 mps 712 mmHg 92%
    19:00 -1°C° 0 mm 2 mps 713 mmHg 92%
    20:00 -1°C° 0 mm 2 mps 713 mmHg 92%
    21:00 -1°C° 0 mm 2 mps 713 mmHg 92%
    22:00 -2°C° 0 mm 2 mps 714 mmHg 93%
    23:00 -2°C° 0 mm 2 mps 714 mmHg 93%

    22 November, Thursday

    Time Temperature Precipitation Wind Pressure Humidity
    00:00 -2°C° 0 mm 2 mps 714 mmHg 93%
    01:00 0°C° 0 mm 1 mps 714 mmHg 93%
    02:00 0°C° 0 mm 1 mps 714 mmHg 93%
    03:00 0°C° 0 mm 1 mps 714 mmHg 93%
    04:00 0°C° 0 mm 1 mps 714 mmHg 93%
    05:00 0°C° 0 mm 1 mps 715 mmHg 93%
    06:00 0°C° 0 mm 1 mps 715 mmHg 93%
    07:00 0°C° 0 mm 1 mps 715 mmHg 93%
    08:00 +1°C° 0 mm 1 mps 715 mmHg 90%
    09:00 +2°C° 0 mm 1 mps 716 mmHg 88%
    10:00 +2°C° 0 mm 1 mps 716 mmHg 85%
    11:00 +3°C° 0 mm 1 mps 716 mmHg 84%
    12:00 +4°C° 0 mm 1 mps 716 mmHg 83%
    13:00 +4°C° 0 mm 1 mps 716 mmHg 82%
    14:00 +3°C° 0 mm 1 mps 716 mmHg 85%
    15:00 +3°C° 0 mm 1 mps 717 mmHg 89%
    16:00 +2°C° 0 mm 1 mps 717 mmHg 92%
    17:00 +2°C° 0 mm 1 mps 717 mmHg 93%
    18:00 +1°C° 0 mm 1 mps 717 mmHg 93%
    19:00 +1°C° 0 mm 1 mps 717 mmHg 94%
    20:00 0°C° 0 mm 1 mps 717 mmHg 94%
    21:00 0°C° 0 mm 1 mps 718 mmHg 94%
    22:00 0°C° 0 mm 1 mps 718 mmHg 94%
    23:00 -1°C° 0 mm 0 mps 718 mmHg 94%

    23 November, Friday

    Time Temperature Precipitation Wind Pressure Humidity
    00:00 -1°C° 0 mm 0 mps 718 mmHg 94%
    01:00 -1°C° 0 mm 0 mps 718 mmHg 94%
    02:00 -1°C° 0 mm 0 mps 718 mmHg 94%
    03:00 -1°C° 0 mm 0 mps 718 mmHg 94%
    04:00 -1°C° 0 mm 0 mps 719 mmHg 94%
    05:00 -1°C° 0 mm 0 mps 719 mmHg 94%
    06:00 -1°C° 0 mm 0 mps 719 mmHg 93%
    07:00 -1°C° 0 mm 0 mps 719 mmHg 93%
    08:00 0°C° 0 mm 0 mps 719 mmHg 89%
    09:00 +2°C° 0 mm 0 mps 720 mmHg 84%
    10:00 +5°C° 0 mm 1 mps 720 mmHg 80%
    11:00 +5°C° 0 mm 1 mps 720 mmHg 79%
    12:00 +6°C° 0 mm 1 mps 720 mmHg 77%
    13:00 +7°C° 0 mm 1 mps 720 mmHg 76%
    14:00 +6°C° 0 mm 1 mps 720 mmHg 82%
    15:00 +4°C° 0 mm 1 mps 719 mmHg 87%
    16:00 +3°C° 0 mm 1 mps 719 mmHg 92%
    17:00 +3°C° 0 mm 1 mps 719 mmHg 93%
    18:00 +2°C° 0 mm 1 mps 719 mmHg 93%
    19:00 +2°C° 0 mm 1 mps 719 mmHg 94%
    20:00 +2°C° 0 mm 1 mps 719 mmHg 94%
    21:00 +2°C° 0 mm 1 mps 719 mmHg 94%
    22:00 +2°C° 0 mm 1 mps 718 mmHg 94%
    23:00 +2°C° 0 mm 1 mps 718 mmHg 94%

    24 November, Saturday

    Time Temperature Precipitation Wind Pressure Humidity
    00:00 +1°C° 0 mm 2 mps 718 mmHg 95%
    01:00 +1°C° 0 mm 2 mps 718 mmHg 95%
    02:00 +1°C° 0 mm 2 mps 717 mmHg 95%
    03:00 +1°C° 0 mm 2 mps 717 mmHg 95%
    04:00 +1°C° 0 mm 2 mps 717 mmHg 95%
    05:00 +1°C° 0 mm 2 mps 717 mmHg 95%
    06:00 +1°C° 0 mm 2 mps 716 mmHg 95%
    07:00 +1°C° 0 mm 2 mps 716 mmHg 95%
    08:00 +2°C° 0 mm 2 mps 716 mmHg 91%
    09:00 +2°C° 0 mm 3 mps 716 mmHg 88%
    10:00 +3°C° 0 mm 3 mps 716 mmHg 85%
    11:00 +3°C° 0 mm 3 mps 716 mmHg 83%
    12:00 +4°C° 0 mm 3 mps 715 mmHg 81%
    13:00 +4°C° 0 mm 3 mps 715 mmHg 79%
    14:00 +3°C° 0 mm 3 mps 715 mmHg 82%
    15:00 +4°C° 0 mm 2 mps 714 mmHg 85%
    16:00 +3°C° 0 mm 2 mps 714 mmHg 88%
    17:00 +3°C° 0 mm 2 mps 714 mmHg 88%
    18:00 +3°C° 0 mm 2 mps 714 mmHg 88%
    19:00 +3°C° 0 mm 2 mps 713 mmHg 88%
    20:00 +3°C° 0.1 mm 2 mps 713 mmHg 89%
    21:00 +3°C° 0.1 mm 2 mps 713 mmHg 90%
    22:00 +2°C° 0.1 mm 2 mps 713 mmHg 90%
    23:00 +2°C° 0 mm 2 mps 713 mmHg 91%
    Show more